Location: Choisy
(48.7685°N, 2.4187°E)
Time: 20:15:21
(UTC+00:00)

BlueWalker 3 - Visible Passes

Search period start: 28 February 2024 00:00
Search period end: 09 March 2024 00:00
Orbit: 485 x 500 km, 53.2° (Epoch: 28 February)

Date Brightness Start Highest point End Pass type
(mag) Time Alt. Az. Time Alt. Az. Time Alt. Az.
28 Feb 2.3 18:47:25 10° WNW 18:51:08 50° NNE 18:53:00 25° ENE visible
28 Feb 4.1 20:25:47 10° WNW 20:27:29 24° WNW 20:27:29 24° WNW visible
29 Feb 2.3 18:23:34 10° WNW 18:27:15 49° NNE 18:30:13 15° E visible
29 Feb 3.0 20:01:55 10° WNW 20:04:42 42° W 20:04:42 42° W visible
01 Mar 2.1 19:38:02 10° WNW 19:41:46 58° SSW 19:41:57 57° SSW visible
02 Mar 2.2 19:14:08 10° WNW 19:17:52 59° SSW 19:19:16 34° SSE visible
03 Mar 2.2 18:50:14 10° WNW 18:53:58 61° SSW 18:56:39 18° SE visible
03 Mar 4.7 20:30:01 10° WSW 20:31:09 12° WSW 20:31:09 12° WSW visible
04 Mar 2.2 18:26:18 10° WNW 18:30:03 63° SSW 18:33:47 10° SE visible
04 Mar 4.5 20:06:00 10° WSW 20:07:43 13° SW 20:08:37 12° SW visible
05 Mar 4.6 19:41:57 10° WSW 19:43:48 13° SW 19:45:38 10° SSW visible
06 Mar 4.6 19:17:55 10° W 19:19:52 14° SW 19:21:50 10° SSW visible
07 Mar 4.7 18:53:52 10° W 18:55:56 14° SW 18:57:59 10° SSW visible
08 Mar 4.7 18:29:49 10° W 18:31:59 15° SW 18:34:08 10° SSW visible
